Dewpoint
57 57 57 57 57 57 57 57 57 58 58 58 58 58 58 58 58 58 58 58 58 59 58 59 60 60 60 60 60 60 59 41 39 37 34 29 42 59 62 66 66 63 57 33 33 31 30 31 32 34 35 35 36 35 37 42 40 38 32 28 26 25 23 27 22 23 25 24 21 23 22 23 22 23 25 24 24 24 24 24 26 26 28 28 29 39 40 41
57 57 57 57 57 57 57 57 57 58 58 58 58 58 58 58 58 58 58 59 58 58 58 59 59 59 60 60 59 60 53 42 39 39 33 48 61 62 65 65 65 61 47 33 31 30 29 29 32 33 33 32 40 36 39 38 41 34 30 26 25 26 25 28 24 23 21 21 22 23 24 24 23 23 23 22 22 22 21 21 24 23 24 26 31 38 39 41
57 57 57 57 57 57 57 57 57 57 58 58 58 58 58 58 58 58 58 58 58 58 58 58 59 59 60 60 60 59 48 36 24 20 26 60 66 65 66 65 62 59 36 34 32 29 27 27 31 31 33 30 33 34 38 36 39 36 30 27 26 27 25 27 26 23 23 24 23 23 25 23 23 23 25 24 22 22 21 21 23 22 22 23 24 37 38 40
56 57 57 57 57 57 57 57 57 57 57 58 58 58 58 58 58 58 58 58 58 58 58 58 59 59 59 60 60 55 37 25 19 17 26 58 60 65 67 64 61 51 37 36 32 30 31 32 32 31 33 31 31 39 35 36 35 35 31 29 29 29 27 26 27 26 25 25 25 25 25 24 24 21 23 21 22 23 23 23 22 22 22 23 23 33 38 39
57 57 57 57 57 57 57 57 57 57 57 57 58 58 58 58 58 58 58 58 58 58 58 58 58 59 60 60 59 45 26 12 17 23 27 66 66 66 66 64 58 38 35 32 30 30 30 30 30 31 31 26 32 34 34 36 36 34 30 31 30 28 28 27 26 26 27 28 26 26 25 25 24 25 21 22 22 23 23 23 24 23 23 23 22 30 37 37
56 57 57 57 57 57 57 57 57 57 57 58 57 57 58 58 58 58 58 58 58 58 58 58 58 59 60 60 51 36 25 9 27 32 58 66 67 67 66 61 53 32 31 30 30 30 28 30 28 30 29 26 27 24 24 35 35 28 30 32 33 29 27 29 27 27 27 25 25 25 26 26 26 25 23 22 23 24 25 25 25 23 23 22 26 34 36 37
58 57 57 58 58 58 57 57 57 57 57 57 57 58 58 58 58 58 57 57 58 58 58 58 58 59 59 57 40 31 22 22 31 36 66 66 67 66 62 59 51 35 31 30 30 30 31 28 28 30 26 26 23 26 25 33 36 32 27 30 30 33 31 30 30 27 27 26 27 26 29 28 28 26 26 23 23 25 25 25 25 25 23 23 25 32 31 34
58 58 58 58 58 58 58 57 57 57 57 57 57 57 58 58 58 58 57 58 57 58 58 58 58 59 58 37 33 28 27 23 21 47 65 65 62 60 52 42 38 38 31 30 30 29 29 27 26 28 25 22 21 26 28 30 34 32 30 30 30 31 32 32 31 31 31 30 30 30 28 27 27 26 25 24 24 24 24 25 24 23 22 22 22 22 29 32
59 58 58 57 57 57 57 57 57 57 57 57 57 57 58 58 57 58 58 58 58 57 58 58 58 59 56 35 27 24 22 35 32 45 60 56 53 48 44 41 39 34 32 31 32 31 30 28 28 24 18 23 25 25 26 23 21 31 29 31 31 29 29 29 28 28 29 29 29 27 26 26 25 25 21 22 23 24 24 23 23 23 22 22 22 22 23 26
59 57 57 57 57 57 56 57 57 57 57 57 58 58 58 58 58 58 57 58 58 57 57 58 58 58 44 32 29 21 29 36 47 54 53 52 48 45 39 44 37 33 32 30 29 29 28 27 28 30 26 25 26 23 26 23 19 29 31 30 28 28 26 26 25 25 25 26 25 24 23 23 23 23 19 20 21 23 23 23 23 22 22 22 22 23 23 23
58 57 57 57 57 57 57 57 57 57 57 57 58 57 58 58 58 58 58 58 58 57 57 57 58 52 39 31 26 17 31 41 48 51 50 48 44 41 40 43 38 34 31 32 30 29 29 27 33 28 31 21 24 24 24 24 25 25 26 22 22 22 22 22 22 22 22 21 22 23 22 22 22 24 20 18 21 22 21 20 20 21 21 21 21 22 26 24
57 57 57 57 57 57 57 57 57 57 57 57 58 58 58 58 58 57 57 57 57 57 57 57 58 54 33 30 25 22 39 41 49 48 48 45 42 41 40 43 37 37 31 29 31 36 32 31 31 21 16 25 20 22 22 26 24 24 23 21 22 21 19 19 20 20 22 20 22 22 21 20 22 19 19 19 21 20 20 20 20 20 20 21 22 21 22 23
58 57 57 57 57 57 57 57 57 57 57 57 57 58 58 58 58 57 57 57 57 57 57 58 56 54 30 23 25 36 41 47 48 44 43 44 43 43 43 42 40 35 34 28 29 36 35 33 30 23 27 20 20 17 21 25 25 23 22 21 19 18 17 17 19 20 20 19 22 16 12 16 16 18 18 17 19 20 20 19 19 19 18 18 19 20 21 22
59 58 58 57 57 57 57 57 57 57 57 57 57 58 58 58 57 57 57 57 57 57 57 56 56 46 23 20 24 36 42 46 44 42 42 44 37 40 43 43 43 42 41 32 40 37 35 34 30 28 33 23 20 29 24 23 23 20 20 20 21 19 16 17 18 20 18 21 21 16 14 13 14 13 14 20 16 16 14 14 14 15 15 15 19 21 21 21
59 59 58 58 57 57 57 57 57 57 57 57 58 58 58 58 57 56 57 56 57 56 57 57 50 32 27 26 32 38 52 39 37 40 44 37 37 38 40 39 38 39 41 42 42 40 37 35 30 24 21 27 28 23 19 21 22 24 16 18 22 17 19 18 19 18 15 18 22 17 17 14 13 13 13 15 17 15 14 13 14 15 16 16 18 17 19 20
59 59 58 57 57 57 57 57 57 57 58 58 58 58 58 58 56 56 57 56 56 58 56 45 42 33 25 25 32 54 38 33 33 40 41 41 39 35 40 39 39 37 36 35 39 35 31 33 26 24 26 24 23 22 22 22 23 23 16 19 16 21 19 15 15 17 18 18 22 16 12 13 11 15 17 17 17 17 16 16 16 16 16 17 16 17 18 20
59 59 58 58 57 57 57 57 57 57 57 58 58 58 58 57 56 56 57 58 56 55 47 40 45 39 24 30 32 26 27 33 41 41 40 42 39 39 37 37 35 34 34 34 36 33 29 29 30 27 26 23 23 25 20 21 19 20 22 18 23 16 16 14 16 14 23 16 15 18 16 14 13 14 15 17 17 16 16 16 16 16 16 17 18 18 18 18
59 58 58 58 58 58 58 57 57 58 58 58 58 57 54 56 56 55 54 54 53 50 47 47 43 28 24 29 25 25 38 38 39 39 40 40 40 37 36 32 34 33 33 30 32 26 29 28 29 26 25 25 22 23 21 15 17 17 17 18 16 18 18 15 16 13 15 18 15 16 16 16 16 17 17 17 17 17 16 16 16 16 16 17 17 18 18 19
59 59 59 59 58 58 58 58 58 58 58 58 57 52 53 53 44 47 43 43 36 34 29 34 25 27 25 24 28 27 38 41 39 39 37 37 39 35 33 33 33 28 27 27 27 25 28 29 29 25 22 22 21 20 19 18 17 15 18 16 15 13 13 15 17 17 18 15 14 14 14 13 14 14 14 15 15 15 15 15 15 15 15 15 16 17 18 20
59 59 59 58 59 59 58 58 58 58 58 56 49 42 42 39 37 35 38 38 35 35 37 32 32 28 32 31 31 33 43 40 35 36 39 40 34 34 31 29 31 29 25 27 29 26 28 25 23 23 22 21 21 21 20 19 20 18 20 20 15 16 15 15 15 14 17 15 14 14 14 14 15 15 15 15 16 16 15 15 15 16 16 17 18 18 20 20
59 59 59 59 59 58 59 58 58 58 58 51 43 39 38 33 35 36 35 36 37 38 36 35 33 31 32 33 36 34 29 29 36 37 39 43 36 31 31 28 28 27 26 28 28 26 27 24 24 24 22 21 20 20 20 20 20 19 20 20 17 21 16 16 16 17 22 17 17 14 16 17 17 17 17 18 17 17 16 16 17 16 16 17 18 19 20 20
59 59 59 59 59 59 59 59 58 58 55 44 41 36 36 35 36 38 36 35 37 37 36 36 35 34 35 34 35 34 35 30 30 37 39 38 34 29 29 27 26 26 28 27 26 25 24 23 23 24 23 22 20 20 20 19 20 21 20 20 20 19 21 19 19 19 20 20 17 18 17 17 17 17 18 18 17 17 17 18 18 17 18 19 20 20 21 24
58 59 59 59 59 59 59 59 58 55 46 44 41 40 39 40 41 41 38 36 35 37 35 35 34 33 33 34 35 35 32 30 29 34 37 37 32 30 29 26 26 27 27 25 24 24 23 25 24 24 24 22 22 20 20 21 23 20 21 20 18 21 19 17 19 20 20 17 18 18 18 18 18 18 18 18 18 18 20 20 21 21 20 20 19 21 25 25
58 58 58 58 59 59 59 59 57 50 46 42 42 42 42 42 41 41 38 34 34 36 36 36 35 34 33 32 34 33 31 31 30 30 36 34 30 32 28 26 25 26 24 24 24 23 22 24 25 25 25 22 21 22 21 20 18 23 22 21 19 20 19 19 17 20 20 20 23 20 19 17 20 19 20 20 22 21 20 20 20 22 25 25 28 26 30 24
58 58 58 58 58 58 58 58 49 47 45 43 42 43 41 41 41 41 38 36 31 33 36 32 34 33 32 36 36 31 31 31 30 31 38 36 30 29 28 29 26 25 25 25 24 25 24 25 26 24 26 24 24 21 23 24 20 21 24 21 20 20 19 20 21 20 19 19 21 19 14 17 21 21 22 22 21 19 21 22 20 20 24 30 23 25 27 34
58 58 58 58 58 58 59 54 48 47 46 43 44 42 42 41 41 39 36 29 30 34 32 29 34 29 34 29 33 32 30 27 32 34 41 36 36 29 28 27 27 27 26 26 24 25 24 26 26 25 25 25 25 23 25 24 20 21 20 23 22 21 22 22 22 21 18 15 20 22 15 15 19 18 20 20 22 18 19 20 19 20 24 23 23 25 25 26
56 57 58 58 58 58 55 51 49 50 51 48 46 44 42 42 41 40 31 30 29 32 29 32 30 28 30 28 31 30 25 28 32 35 34 38 31 35 25 25 25 23 27 26 25 25 24 24 24 26 25 25 23 21 25 23 23 20 25 25 24 23 22 23 23 22 19 24 25 23 20 16 16 19 20 20 20 17 17 17 19 19 20 21 22 25 27 31
54 55 56 58 58 57 55 53 53 52 52 48 45 44 43 42 41 38 35 30 29 29 27 28 30 34 33 31 32 25 26 25 21 25 33 35 33 30 25 23 25 25 23 25 22 25 24 24 24 24 24 24 23 24 26 25 22 22 25 25 24 23 23 23 22 21 21 20 20 22 23 16 18 20 19 20 19 18 17 17 18 19 21 21 24 27 30 29
53 54 55 57 58 58 55 54 53 52 50 47 46 46 44 41 35 36 32 29 32 29 33 28 34 30 30 30 27 25 25 24 19 23 32 33 34 28 26 26 24 24 22 25 23 23 21 23 25 26 25 22 25 24 26 26 22 25 26 27 26 25 25 24 21 20 20 18 18 19 21 14 15 21 17 19 20 18 19 19 19 21 22 23 26 29 28 28
52 52 54 56 57 56 54 53 52 52 48 47 47 46 44 41 39 33 30 27 31 29 28 30 28 27 28 26 26 26 24 25 27 27 29 30 31 29 26 27 23 23 25 25 24 26 24 32 30 24 23 24 24 25 26 26 25 27 27 26 26 23 22 21 20 20 18 15 19 20 21 17 16 21 18 19 22 20 20 20 20 21 26 27 25 28 32 26
51 52 52 54 54 54 53 51 52 49 48 47 46 46 44 42 35 33 28 33 34 34 28 27 26 29 26 25 25 25 26 26 25 28 26 29 28 28 26 25 28 27 23 23 24 26 25 25 25 28 31 27 27 27 27 27 27 26 24 23 22 21 16 16 12 17 14 16 19 20 21 19 17 18 20 19 19 20 20 19 19 20 20 22 25 27 26 26
50 51 52 53 55 55 53 51 51 49 47 47 48 45 41 34 33 31 30 36 29 32 26 26 27 27 26 26 25 26 24 25 25 26 23 26 28 27 26 25 25 20 25 22 21 26 22 24 27 27 32 25 26 24 25 28 27 25 24 23 18 17 16 12 14 11 13 17 19 20 20 18 16 19 18 19 19 20 19 19 20 21 20 20 22 26 27 30
49 49 51 51 53 54 54 52 50 49 49 49 47 45 37 32 28 33 32 31 30 30 30 27 25 26 27 27 28 28 27 27 26 26 30 27 27 28 29 27 29 25 24 24 21 24 27 25 24 26 26 28 27 21 23 22 26 24 22 24 20 16 15 14 12 7 11 16 17 19 21 17 18 18 20 19 19 20 22 21 21 21 21 21 23 25 26 29
47 48 47 49 53 55 53 51 51 51 50 48 45 41 36 31 29 38 31 32 31 32 29 27 28 27 26 29 29 26 27 29 26 25 27 25 24 24 25 27 27 25 24 22 21 23 24 27 28 24 24 29 26 23 23 27 25 23 26 23 23 21 17 16 15 18 20 21 17 17 15 18 13 18 21 21 20 21 22 23 24 25 23 23 24 26 27 28
46 48 51 51 52 53 52 52 51 52 50 48 43 38 32 30 31 30 30 30 31 31 32 31 30 28 30 27 27 28 29 28 27 25 25 25 24 24 25 24 28 28 25 22 27 21 24 26 30 27 27 27 26 29 31 27 25 27 27 26 21 21 25 20 22 22 23 22 18 14 19 18 17 22 22 23 22 22 22 22 24 21 23 25 24 26 28 28
45 44 49 48 50 52 53 52 52 52 50 47 41 35 33 30 28 31 31 34 32 32 31 32 29 28 30 28 29 27 29 29 29 25 25 26 26 25 27 27 27 27 24 25 26 23 24 21 28 26 28 26 26 27 27 27 21 25 24 22 23 28 23 22 24 25 23 21 20 22 20 23 23 25 24 23 21 20 22 21 21 21 22 22 25 27 27 28
41 45 41 45 49 53 53 52 52 51 50 46 39 33 36 34 35 33 40 33 33 31 30 29 30 30 28 28 29 28 29 28 28 27 27 27 26 27 26 27 30 29 27 27 26 28 26 25 27 25 24 25 27 27 27 27 26 24 22 24 27 29 28 24 20 22 21 20 21 25 24 23 23 22 21 23 23 23 22 21 19 22 23 22 26 28 28 28
42 43 45 44 48 53 53 52 51 51 48 44 37 38 38 35 36 35 33 31 32 33 29 28 30 30 29 28 28 28 28 28 28 26 26 27 25 28 26 25 28 28 26 29 25 29 26 22 24 26 25 26 28 27 26 27 28 24 25 30 23 21 20 21 22 18 19 19 21 25 23 23 24 22 23 23 23 23 20 21 21 22 23 24 27 28 28 28
42 42 36 41 44 53 53 51 51 49 44 39 37 37 39 39 37 36 36 36 34 33 32 32 31 32 31 29 29 30 29 27 28 25 25 29 26 30 28 28 26 28 28 28 24 27 29 23 25 28 26 27 29 27 22 23 26 28 27 25 28 23 24 21 24 24 22 20 21 21 25 22 27 24 24 25 23 23 19 23 25 25 26 27 28 27 27 26
40 37 34 40 51 53 53 51 49 46 42 36 38 38 38 36 37 37 36 37 35 34 33 32 32 32 32 32 31 31 31 29 28 29 27 31 30 33 30 31 27 30 33 30 28 30 25 29 23 27 29 30 25 25 24 24 23 24 23 22 24 26 28 28 27 24 23 22 21 21 21 25 29 29 27 27 22 23 25 26 27 27 27 26 26 26 25 25
44 37 34 50 53 53 52 49 44 41 40 41 40 38 37 36 36 36 37 37 36 37 35 32 31 31 31 30 32 32 31 31 30 31 30 31 31 30 32 33 31 26 32 30 30 29 29 29 26 27 26 26 27 29 28 27 26 26 24 24 24 25 25 24 24 31 28 26 23 23 21 28 37 34 29 29 25 26 26 27 27 26 24 24 24 24 24 24
37 21 35 52 53 52 49 42 42 42 40 38 36 37 36 39 37 37 36 36 36 36 36 34 32 32 32 34 34 31 32 30 31 31 30 31 31 32 31 32 32 32 31 29 29 32 32 30 28 28 28 28 29 31 31 29 29 29 27 27 29 27 28 26 23 24 27 28 28 27 25 24 33 33 30 28 23 23 24 24 23 23 23 22 23 23 23 23
38 30 41 48 53 51 46 39 42 40 39 40 42 40 38 37 35 35 35 35 36 36 35 35 35 34 34 35 32 32 32 32 31 31 30 30 31 33 32 33 32 31 31 30 31 31 34 24 25 29 30 31 31 31 30 29 30 30 30 29 28 27 28 27 27 28 25 25 25 25 24 28 37 39 32 25 23 22 22 22 22 21 21 22 23 23 23 23
37 37 39 44 48 49 43 33 34 36 39 41 41 40 39 37 36 35 35 35 34 35 35 34 33 36 34 33 33 33 31 30 30 32 31 30 30 31 31 33 33 27 32 31 31 32 27 27 29 25 24 27 28 28 28 29 29 28 27 29 29 30 31 30 29 30 27 26 26 25 20 26 36 38 28 25 24 21 20 20 21 21 21 22 22 23 24 24
32 31 35 38 44 42 38 40 36 37 38 38 38 37 38 39 38 38 37 36 37 36 35 35 36 33 33 32 32 32 31 32 30 30 30 30 29 29 28 31 33 32 33 32 36 32 29 29 29 24 21 19 18 17 17 20 26 29 28 27 29 31 31 30 27 28 25 29 28 26 25 32 33 30 29 25 24 22 20 20 20 21 21 22 23 23 23 23
27 19 23 29 38 41 40 40 39 38 36 37 36 36 36 34 34 35 37 37 38 36 37 35 32 31 29 29 30 31 31 31 31 31 30 31 30 30 29 31 31 32 34 34 32 32 30 31 31 30 28 25 26 29 30 32 30 29 30 31 31 32 31 31 30 27 24 26 26 27 27 27 27 29 28 24 23 21 22 18 19 20 21 22 23 23 24 23
28 25 22 12 30 34 35 36 35 37 35 38 33 36 34 34 33 31 36 34 33 35 34 34 34 34 32 32 31 32 31 31 31 32 32 32 29 27 27 28 28 32 34 31 30 26 28 29 30 30 29 30 30 29 30 29 26 26 27 26 28 28 28 28 26 24 26 25 22 26 28 28 27 29 25 22 21 20 20 21 17 19 21 22 22 23 26 23
21 22 27 29 27 21 27 31 34 33 34 34 32 35 32 34 34 33 32 35 36 34 34 34 36 36 35 34 31 29 31 31 30 30 28 25 25 25 25 25 27 28 29 23 27 27 23 21 21 24 23 27 28 27 25 24 25 25 25 25 24 25 25 23 23 25 26 25 23 25 26 24 23 23 22 22 20 20 20 21 20 19 21 22 22 22 23 23
27 26 26 28 26 27 28 30 31 31 30 31 32 33 32 32 32 34 33 33 33 33 36 32 31 31 32 32 33 31 31 27 25 26 25 22 19 20 19 21 27 22 21 20 23 27 28 25 26 24 25 26 24 23 23 22 21 21 21 22 22 22 22 21 21 23 24 23 24 23 22 22 24 22 21 21 18 20 20 21 22 20 21 22 22 22 23 23
24 26 24 27 28 27 28 29 29 28 27 28 28 30 31 32 32 33 32 32 30 31 34 30 30 29 29 28 29 29 29 29 29 26 25 22 23 21 18 23 22 22 20 19 20 24 28 21 26 22 19 19 20 21 20 20 19 18 18 20 20 19 19 19 19 19 20 20 20 21 21 22 23 24 20 21 19 20 21 17 18 21 22 23 22 22 22 23
30 32 31 26 22 23 26 27 27 27 26 27 26 26 27 27 27 29 29 33 33 30 30 29 27 25 25 25 26 27 30 29 29 29 29 28 26 28 25 24 23 20 21 19 23 22 23 20 22 19 15 14 17 17 17 18 18 17 16 16 14 13 12 13 14 14 15 16 18 20 19 20 20 22 21 20 19 15 16 15 16 21 22 23 23 22 22 23
27 27 30 29 19 26 23 26 23 24 19 22 26 27 28 26 23 24 25 27 25 26 25 26 28 25 26 28 27 28 29 28 27 28 29 28 28 27 25 23 22 20 21 18 24 18 21 17 14 14 12 10 13 11 12 9 7 5 6 7 10 11 11 12 14 17 25 27 22 18 20 21 21 23 21 19 18 17 14 15 17 17 22 24 24 23 22 24